Location: Elbart
(49.6135°N, 11.9134°E)
Time: 23:21:54
(UTC+00:00)

CZ-4C R/B - Pass Details

Date: 09 April 2020
Orbit: 637 x 1365 km, 63.4° (Epoch: 03 June)

Event Time Altitude Azimuth Distance (km) Brightness Sun altitude
Rises 19:01:13 0° 310° (NW) 3,580 7.2 -10.6°
Reaches altitude 10° 19:03:53 10° 321° (NW) 2,747 6.0 -11.0°
Maximum altitude 19:09:46 33° 24° (NNE) 1,771 3.9 -11.9°
Drops below altitude 10° 19:16:36 10° 87° (E) 3,203 4.7 -12.8°
Enters shadow 19:16:37 10° 87° (E) 3,212 4.7 -12.8°
